QPF
0.02 0.02 0.02 0.03 0.02 0.02 0.02 0.02 0.03 0.04 0.05 0.05 0.03 0.02 0.01 0.01 0.02 0.03 0.03 0.04 0.04 0.04 0.04 0.03 0.05 0.05 0.06 0.08 0.07 0.07 0.07 0.06 0.06 0.06 0.07 0.07 0.06 0.05 0.04 0.03 0.02 0.02 0.02 0.02
0.04 0.02 0.02 0.03 0.04 0.03 0.03 0.02 0.03 0.03 0.04 0.03 0.02 0.01 0.01 0.01 0.02 0.03 0.04 0.04 0.05 0.04 0.04 0.04 0.05 0.05 0.05 0.08 0.10 0.08 0.07 0.07 0.06 0.06 0.07 0.07 0.07 0.06 0.05 0.04 0.02 0.01 0.02 0.02
0.05 0.02 0.04 0.05 0.04 0.03 0.04 0.04 0.03 0.03 0.03 0.02 0.01 0.00 0.00 0.01 0.02 0.04 0.04 0.04 0.05 0.05 0.04 0.04 0.05 0.06 0.05 0.06 0.08 0.10 0.09 0.07 0.06 0.06 0.06 0.07 0.06 0.05 0.05 0.04 0.03 0.02 0.01 0.01
0.04 0.03 0.06 0.05 0.03 0.04 0.04 0.04 0.02 0.01 0.02 0.02 0.01 0.01 0.01 0.02 0.02 0.03 0.03 0.04 0.05 0.05 0.05 0.05 0.05 0.06 0.06 0.07 0.07 0.08 0.09 0.07 0.06 0.05 0.05 0.05 0.05 0.04 0.04 0.03 0.02 0.01 0.00 0.00
0.07 0.07 0.10 0.06 0.05 0.05 0.03 0.03 0.02 0.02 0.02 0.01 0.01 0.01 0.01 0.01 0.02 0.02 0.02 0.03 0.03 0.04 0.05 0.05 0.05 0.05 0.06 0.08 0.08 0.08 0.08 0.07 0.06 0.06 0.06 0.06 0.06 0.05 0.04 0.02 0.01 0.01 0.00 0.00
0.09 0.10 0.12 0.07 0.05 0.03 0.02 0.03 0.02 0.01 0.01 0.01 0.01 0.01 0.01 0.01 0.02 0.02 0.02 0.02 0.03 0.03 0.04 0.04 0.05 0.05 0.06 0.07 0.08 0.07 0.07 0.07 0.06 0.06 0.06 0.06 0.05 0.04 0.04 0.03 0.02 0.01 0.00 0.00
0.09 0.09 0.09 0.05 0.03 0.02 0.03 0.03 0.02 0.01 0.01 0.01 0.01 0.01 0.01 0.01 0.01 0.02 0.02 0.02 0.03 0.03 0.04 0.03 0.03 0.04 0.06 0.08 0.08 0.06 0.05 0.05 0.05 0.04 0.04 0.04 0.04 0.03 0.03 0.03 0.03 0.02 0.02 0.01
0.07 0.09 0.10 0.03 0.02 0.02 0.01 0.01 0.01 0.01 0.01 0.01 0.01 0.00 0.01 0.01 0.02 0.02 0.03 0.04 0.04 0.03 0.03 0.02 0.02 0.02 0.03 0.06 0.07 0.05 0.05 0.04 0.04 0.03 0.03 0.03 0.02 0.02 0.01 0.01 0.01 0.01 0.01 0.00
0.06 0.05 0.03 0.01 0.01 0.00 0.00 0.00 0.01 0.00 0.01 0.01 0.01 0.01 0.02 0.03 0.02 0.02 0.03 0.04 0.04 0.03 0.02 0.02 0.02 0.02 0.02 0.03 0.04 0.04 0.04 0.03 0.03 0.03 0.02 0.02 0.02 0.01 0.01 0.01 0.00 0.00 0.00 0.00
0.05 0.04 0.02 0.01 0.00 0.00 0.00 0.00 0.00 0.00 0.01 0.01 0.01 0.01 0.01 0.01 0.01 0.02 0.04 0.04 0.03 0.03 0.02 0.02 0.03 0.03 0.02 0.03 0.03 0.03 0.04 0.04 0.03 0.03 0.02 0.01 0.01 0.01 0.00 0.00 0.00 0.00 0.00 0.00
0.04 0.02 0.01 0.01 0.00 0.00 0.00 0.00 0.00 0.01 0.01 0.01 0.02 0.01 0.01 0.01 0.01 0.02 0.04 0.03 0.03 0.02 0.02 0.02 0.03 0.03 0.02 0.02 0.01 0.02 0.02 0.03 0.03 0.01 0.01 0.00 0.00 0.00 0.00 0.00 0.00 0.00 0.00 0.00
0.03 0.02 0.01 0.00 0.00 0.00 0.00 0.00 0.00 0.00 0.00 0.01 0.02 0.01 0.01 0.01 0.02 0.02 0.03 0.04 0.03 0.02 0.03 0.03 0.02 0.02 0.02 0.01 0.01 0.01 0.02 0.02 0.01 0.01 0.00 0.00 0.00 0.00 0.00 0.00 0.00 0.00 0.00 0.00
0.03 0.02 0.01 0.00 0.00 0.00 0.00 0.00 0.00 0.00 0.00 0.01 0.02 0.02 0.01 0.02 0.03 0.03 0.03 0.04 0.04 0.02 0.03 0.03 0.02 0.02 0.01 0.01 0.01 0.01 0.01 0.01 0.01 0.00 0.00 0.00 0.00 0.00 0.00 0.00 0.00 0.00 0.00 0.00
0.01 0.01 0.00 0.00 0.00 0.00 0.01 0.01 0.01 0.00 0.00 0.01 0.02 0.02 0.02 0.02 0.03 0.03 0.04 0.03 0.02 0.02 0.03 0.03 0.02 0.01 0.01 0.01 0.00 0.00 0.00 0.00 0.00 0.00 0.00 0.00 0.00 0.00 0.00 0.00 0.00 0.00 0.00 0.00
0.01 0.01 0.00 0.00 0.00 0.00 0.00 0.00 0.01 0.01 0.01 0.01 0.01 0.02 0.02 0.03 0.03 0.03 0.02 0.01 0.01 0.01 0.02 0.02 0.01 0.01 0.01 0.00 0.00 0.00 0.00 0.00 0.00 0.00 0.00 0.00 0.00 0.00 0.00 0.00 0.00 0.00 0.00 0.00
0.01 0.01 0.01 0.00 0.00 0.00 0.00 0.00 0.01 0.01 0.01 0.01 0.01 0.02 0.02 0.02 0.02 0.02 0.01 0.01 0.01 0.01 0.01 0.01 0.01 0.01 0.01 0.00 0.00 0.00 0.00 0.00 0.00 0.00 0.00 0.00 0.00 0.00 0.00 0.00 0.00 0.00 0.00 0.00
0.01 0.01 0.01 0.00 0.00 0.00 0.00 0.00 0.00 0.00 0.00 0.01 0.01 0.01 0.01 0.01 0.01 0.01 0.01 0.01 0.01 0.01 0.00 0.00 0.00 0.00 0.00 0.00 0.00 0.00 0.00 0.00 0.00 0.00 0.00 0.00 0.00 0.00 0.00 0.00 0.00 0.00 0.00 0.00
0.01 0.01 0.01 0.00 0.00 0.00 0.00 0.00 0.00 0.00 0.00 0.00 0.00 0.01 0.00 0.01 0.01 0.01 0.02 0.02 0.02 0.01 0.01 0.00 0.00 0.00 0.00 0.00 0.00 0.00 0.00 0.00 0.00 0.00 0.00 0.00 0.00 0.00 0.00 0.00 0.00 0.00 0.00 0.00
0.01 0.00 0.00 0.00 0.00 0.00 0.00 0.00 0.00 0.00 0.00 0.00 0.00 0.00 0.01 0.01 0.01 0.01 0.01 0.01 0.01 0.01 0.01 0.00 0.00 0.00 0.00 0.00 0.00 0.00 0.00 0.00 0.00 0.00 0.00 0.00 0.00 0.00 0.00 0.00 0.00 0.00 0.00 0.00
0.01 0.01 0.00 0.00 0.00 0.00 0.00 0.00 0.00 0.00 0.00 0.00 0.00 0.00 0.00 0.00 0.00 0.00 0.00 0.00 0.00 0.00 0.00 0.00 0.00 0.00 0.00 0.00 0.00 0.00 0.00 0.00 0.00 0.00 0.00 0.00 0.00 0.00 0.00 0.00 0.00 0.00 0.00 0.00
0.00 0.00 0.00 0.00 0.00 0.00 0.00 0.00 0.00 0.00 0.00 0.00 0.00 0.00 0.00 0.00 0.00 0.00 0.00 0.00 0.00 0.00 0.00 0.00 0.00 0.00 0.00 0.00 0.00 0.00 0.00 0.00 0.00 0.00 0.00 0.00 0.00 0.00 0.00 0.00 0.00 0.00 0.00 0.00
0.00 0.00 0.00 0.00 0.00 0.00 0.00 0.00 0.00 0.00 0.00 0.00 0.00 0.00 0.00 0.00 0.00 0.00 0.00 0.00 0.00 0.00 0.00 0.00 0.00 0.00 0.00 0.00 0.00 0.00 0.00 0.00 0.00 0.00 0.00 0.00 0.00 0.00 0.00 0.00 0.00 0.00 0.00 0.00
0.00 0.00 0.00 0.00 0.00 0.00 0.00 0.00 0.00 0.00 0.00 0.00 0.00 0.00 0.00 0.00 0.00 0.00 0.00 0.00 0.00 0.00 0.00 0.00 0.00 0.00 0.00 0.00 0.00 0.00 0.00 0.00 0.00 0.00 0.00 0.00 0.00 0.00 0.00 0.00 0.00 0.00 0.00 0.00
0.00 0.00 0.00 0.00 0.00 0.00 0.00 0.00 0.00 0.00 0.00 0.00 0.00 0.00 0.00 0.00 0.00 0.00 0.00 0.00 0.00 0.00 0.00 0.00 0.00 0.00 0.00 0.00 0.00 0.00 0.00 0.00 0.00 0.00 0.00 0.00 0.00 0.00 0.00 0.00 0.00 0.00 0.00 0.00
0.00 0.00 0.00 0.00 0.00 0.00 0.00 0.00 0.00 0.00 0.00 0.00 0.00 0.00 0.00 0.00 0.00 0.00 0.00 0.00 0.00 0.00 0.00 0.00 0.00 0.00 0.00 0.00 0.00 0.00 0.00 0.00 0.00 0.00 0.00 0.00 0.00 0.00 0.00 0.00 0.00 0.00 0.00 0.00
0.01 0.00 0.00 0.00 0.00 0.00 0.00 0.00 0.00 0.00 0.00 0.00 0.00 0.00 0.00 0.00 0.00 0.00 0.00 0.00 0.00 0.00 0.00 0.00 0.00 0.00 0.00 0.00 0.00 0.00 0.00 0.00 0.00 0.00 0.00 0.00 0.00 0.00 0.00 0.00 0.00 0.00 0.00 0.00
0.01 0.01 0.00 0.00 0.00 0.00 0.00 0.00 0.00 0.00 0.00 0.00 0.00 0.00 0.00 0.00 0.00 0.00 0.00 0.00 0.00 0.00 0.00 0.00 0.00 0.00 0.00 0.00 0.00 0.00 0.00 0.00 0.00 0.00 0.00 0.00 0.00 0.00 0.00 0.00 0.00 0.00 0.00 0.00
MSLP
1011.03 1010.97 1010.95 1010.98 1011.05 1011.14 1011.25 1011.37 1011.50 1011.65 1011.84 1012.08 1012.39 1012.79 1013.27 1013.82 1014.41 1015.01 1015.58 1016.08 1016.50 1016.81 1017.03 1017.16 1017.24 1017.30 1017.37 1017.46 1017.58 1017.75 1017.94 1018.14 1018.35 1018.55 1018.74 1018.93 1019.13 1019.34 1019.59 1019.87 1020.20 1020.56 1020.95 1021.35
1011.15 1011.04 1010.92 1010.80 1010.71 1010.65 1010.64 1010.71 1010.85 1011.08 1011.41 1011.83 1012.35 1012.95 1013.59 1014.26 1014.92 1015.54 1016.10 1016.57 1016.95 1017.24 1017.46 1017.62 1017.75 1017.87 1017.98 1018.11 1018.26 1018.41 1018.56 1018.71 1018.86 1019.01 1019.17 1019.35 1019.57 1019.84 1020.15 1020.50 1020.89 1021.30 1021.72 1022.11
1011.40 1011.25 1011.05 1010.83 1010.62 1010.46 1010.36 1010.38 1010.53 1010.82 1011.26 1011.82 1012.49 1013.22 1013.98 1014.73 1015.43 1016.05 1016.57 1017.00 1017.33 1017.59 1017.80 1017.97 1018.13 1018.29 1018.45 1018.62 1018.78 1018.93 1019.07 1019.20 1019.32 1019.46 1019.62 1019.82 1020.08 1020.41 1020.79 1021.22 1021.67 1022.12 1022.54 1022.92
1011.72 1011.56 1011.32 1011.05 1010.77 1010.54 1010.41 1010.40 1010.56 1010.89 1011.39 1012.04 1012.79 1013.61 1014.43 1015.22 1015.92 1016.53 1017.02 1017.41 1017.70 1017.93 1018.13 1018.31 1018.49 1018.67 1018.87 1019.06 1019.24 1019.41 1019.55 1019.67 1019.80 1019.94 1020.12 1020.36 1020.67 1021.05 1021.50 1021.98 1022.48 1022.95 1023.38 1023.74
1012.06 1011.88 1011.64 1011.36 1011.07 1010.83 1010.69 1010.69 1010.87 1011.23 1011.76 1012.45 1013.25 1014.10 1014.94 1015.73 1016.43 1017.01 1017.48 1017.84 1018.11 1018.34 1018.53 1018.72 1018.92 1019.13 1019.34 1019.56 1019.75 1019.92 1020.07 1020.20 1020.33 1020.48 1020.69 1020.96 1021.32 1021.74 1022.23 1022.75 1023.26 1023.74 1024.16 1024.48
1012.31 1012.14 1011.91 1011.66 1011.41 1011.22 1011.12 1011.17 1011.37 1011.76 1012.32 1013.02 1013.82 1014.66 1015.50 1016.27 1016.96 1017.53 1017.98 1018.34 1018.61 1018.84 1019.04 1019.25 1019.47 1019.69 1019.92 1020.14 1020.34 1020.52 1020.67 1020.80 1020.94 1021.11 1021.33 1021.63 1022.00 1022.44 1022.94 1023.47 1023.98 1024.44 1024.83 1025.11
1012.40 1012.23 1012.06 1011.88 1011.72 1011.62 1011.61 1011.73 1012.00 1012.43 1013.00 1013.70 1014.48 1015.30 1016.10 1016.85 1017.52 1018.08 1018.53 1018.90 1019.19 1019.44 1019.66 1019.89 1020.12 1020.36 1020.59 1020.81 1021.01 1021.19 1021.34 1021.47 1021.62 1021.79 1022.03 1022.32 1022.70 1023.13 1023.62 1024.11 1024.59 1025.02 1025.36 1025.61
1012.29 1012.15 1012.04 1011.97 1011.94 1011.98 1012.11 1012.34 1012.69 1013.17 1013.76 1014.45 1015.20 1015.98 1016.75 1017.46 1018.10 1018.65 1019.11 1019.49 1019.80 1020.08 1020.33 1020.57 1020.81 1021.05 1021.29 1021.51 1021.70 1021.87 1022.02 1022.16 1022.31 1022.49 1022.72 1023.02 1023.37 1023.78 1024.22 1024.68 1025.10 1025.48 1025.77 1025.98
1012.00 1011.90 1011.88 1011.94 1012.07 1012.28 1012.57 1012.94 1013.39 1013.93 1014.55 1015.23 1015.96 1016.69 1017.40 1018.07 1018.68 1019.21 1019.67 1020.05 1020.38 1020.67 1020.94 1021.20 1021.44 1021.68 1021.91 1022.12 1022.31 1022.48 1022.64 1022.79 1022.95 1023.14 1023.38 1023.66 1023.99 1024.36 1024.76 1025.15 1025.52 1025.84 1026.09 1026.26
1011.58 1011.53 1011.62 1011.84 1012.15 1012.54 1013.00 1013.52 1014.08 1014.69 1015.34 1016.01 1016.69 1017.37 1018.02 1018.64 1019.20 1019.70 1020.14 1020.52 1020.85 1021.15 1021.42 1021.67 1021.91 1022.15 1022.37 1022.58 1022.77 1022.95 1023.12 1023.30 1023.48 1023.69 1023.94 1024.21 1024.53 1024.86 1025.21 1025.55 1025.86 1026.13 1026.33 1026.48
1011.08 1011.12 1011.34 1011.72 1012.21 1012.78 1013.40 1014.06 1014.72 1015.39 1016.06 1016.71 1017.35 1017.97 1018.56 1019.10 1019.61 1020.06 1020.47 1020.83 1021.15 1021.43 1021.70 1021.94 1022.17 1022.39 1022.60 1022.81 1023.02 1023.22 1023.43 1023.64 1023.86 1024.11 1024.37 1024.66 1024.97 1025.28 1025.59 1025.88 1026.15 1026.37 1026.55 1026.67
1010.59 1010.74 1011.09 1011.62 1012.28 1013.00 1013.77 1014.53 1015.28 1015.99 1016.65 1017.28 1017.87 1018.42 1018.94 1019.42 1019.86 1020.27 1020.63 1020.96 1021.25 1021.52 1021.76 1021.98 1022.19 1022.40 1022.62 1022.83 1023.06 1023.30 1023.55 1023.81 1024.09 1024.38 1024.68 1024.99 1025.30 1025.60 1025.89 1026.15 1026.38 1026.58 1026.73 1026.85
1010.13 1010.40 1010.89 1011.56 1012.35 1013.20 1014.06 1014.90 1015.69 1016.42 1017.08 1017.67 1018.20 1018.69 1019.14 1019.56 1019.95 1020.30 1020.63 1020.92 1021.19 1021.43 1021.65 1021.86 1022.06 1022.26 1022.48 1022.71 1022.97 1023.24 1023.54 1023.86 1024.20 1024.54 1024.88 1025.22 1025.54 1025.84 1026.11 1026.35 1026.56 1026.74 1026.88 1027.00
1009.71 1010.11 1010.73 1011.51 1012.40 1013.33 1014.26 1015.13 1015.94 1016.65 1017.28 1017.83 1018.31 1018.75 1019.15 1019.52 1019.87 1020.19 1020.49 1020.77 1021.02 1021.25 1021.46 1021.66 1021.85 1022.06 1022.28 1022.53 1022.82 1023.13 1023.48 1023.85 1024.23 1024.62 1025.00 1025.35 1025.69 1025.99 1026.25 1026.48 1026.68 1026.84 1026.98 1027.09
1009.32 1009.84 1010.57 1011.44 1012.39 1013.37 1014.32 1015.20 1015.98 1016.67 1017.26 1017.77 1018.21 1018.61 1018.98 1019.33 1019.66 1019.98 1020.28 1020.56 1020.82 1021.05 1021.27 1021.47 1021.67 1021.89 1022.12 1022.39 1022.70 1023.05 1023.43 1023.83 1024.24 1024.66 1025.06 1025.43 1025.77 1026.06 1026.31 1026.53 1026.71 1026.86 1026.99 1027.11
1008.92 1009.56 1010.38 1011.31 1012.30 1013.29 1014.23 1015.09 1015.84 1016.49 1017.05 1017.52 1017.94 1018.32 1018.69 1019.04 1019.39 1019.73 1020.06 1020.37 1020.66 1020.91 1021.15 1021.37 1021.59 1021.82 1022.07 1022.35 1022.67 1023.03 1023.42 1023.84 1024.26 1024.69 1025.09 1025.46 1025.78 1026.06 1026.30 1026.49 1026.65 1026.79 1026.91 1027.03
1008.51 1009.24 1010.13 1011.11 1012.12 1013.11 1014.02 1014.85 1015.56 1016.18 1016.70 1017.16 1017.57 1017.96 1018.34 1018.73 1019.12 1019.50 1019.88 1020.24 1020.57 1020.87 1021.14 1021.39 1021.62 1021.86 1022.12 1022.40 1022.72 1023.08 1023.46 1023.87 1024.29 1024.70 1025.09 1025.43 1025.74 1025.99 1026.21 1026.38 1026.52 1026.64 1026.75 1026.86
1008.08 1008.90 1009.84 1010.85 1011.87 1012.84 1013.73 1014.52 1015.20 1015.79 1016.30 1016.76 1017.18 1017.59 1018.01 1018.44 1018.88 1019.33 1019.77 1020.18 1020.57 1020.91 1021.22 1021.50 1021.75 1022.00 1022.25 1022.53 1022.83 1023.17 1023.53 1023.91 1024.30 1024.68 1025.03 1025.35 1025.63 1025.86 1026.05 1026.20 1026.32 1026.42 1026.52 1026.61
1007.66 1008.54 1009.53 1010.56 1011.57 1012.53 1013.40 1014.17 1014.84 1015.42 1015.92 1016.39 1016.83 1017.28 1017.74 1018.23 1018.72 1019.23 1019.72 1020.19 1020.62 1021.00 1021.34 1021.64 1021.91 1022.15 1022.40 1022.65 1022.93 1023.23 1023.55 1023.89 1024.24 1024.58 1024.90 1025.19 1025.44 1025.65 1025.82 1025.95 1026.06 1026.16 1026.24 1026.33
1007.28 1008.21 1009.23 1010.27 1011.29 1012.24 1013.10 1013.86 1014.52 1015.10 1015.62 1016.10 1016.58 1017.06 1017.56 1018.09 1018.63 1019.18 1019.71 1020.22 1020.68 1021.09 1021.45 1021.75 1022.02 1022.25 1022.48 1022.70 1022.94 1023.20 1023.48 1023.78 1024.08 1024.39 1024.68 1024.94 1025.17 1025.37 1025.53 1025.67 1025.77 1025.87 1025.95 1026.03
1006.99 1007.95 1008.98 1010.02 1011.04 1011.99 1012.84 1013.60 1014.27 1014.86 1015.40 1015.91 1016.41 1016.92 1017.46 1018.01 1018.58 1019.15 1019.70 1020.23 1020.70 1021.12 1021.47 1021.78 1022.03 1022.25 1022.45 1022.64 1022.84 1023.05 1023.29 1023.54 1023.81 1024.08 1024.34 1024.59 1024.82 1025.02 1025.19 1025.33 1025.45 1025.56 1025.64 1025.72
1006.81 1007.77 1008.79 1009.83 1010.84 1011.78 1012.64 1013.40 1014.08 1014.69 1015.25 1015.78 1016.31 1016.84 1017.39 1017.95 1018.53 1019.10 1019.65 1020.17 1020.64 1021.05 1021.39 1021.68 1021.92 1022.11 1022.29 1022.45 1022.61 1022.78 1022.98 1023.19 1023.42 1023.67 1023.92 1024.16 1024.39 1024.60 1024.79 1024.95 1025.09 1025.22 1025.32 1025.41
1006.74 1007.67 1008.67 1009.68 1010.67 1011.60 1012.45 1013.22 1013.91 1014.54 1015.12 1015.67 1016.21 1016.75 1017.30 1017.87 1018.43 1018.99 1019.53 1020.03 1020.48 1020.87 1021.20 1021.47 1021.69 1021.87 1022.02 1022.15 1022.28 1022.43 1022.59 1022.77 1022.97 1023.19 1023.42 1023.66 1023.89 1024.11 1024.32 1024.51 1024.68 1024.83 1024.95 1025.06
1006.78 1007.66 1008.60 1009.57 1010.51 1011.41 1012.25 1013.02 1013.72 1014.36 1014.95 1015.52 1016.07 1016.62 1017.17 1017.72 1018.26 1018.80 1019.31 1019.79 1020.22 1020.60 1020.91 1021.18 1021.39 1021.55 1021.69 1021.81 1021.92 1022.03 1022.17 1022.32 1022.49 1022.68 1022.89 1023.12 1023.35 1023.58 1023.80 1024.01 1024.20 1024.37 1024.52 1024.65
1006.88 1007.68 1008.55 1009.44 1010.33 1011.20 1012.01 1012.76 1013.47 1014.11 1014.72 1015.30 1015.86 1016.40 1016.95 1017.48 1018.01 1018.52 1019.01 1019.47 1019.88 1020.24 1020.56 1020.82 1021.03 1021.20 1021.34 1021.46 1021.56 1021.66 1021.76 1021.89 1022.03 1022.19 1022.37 1022.57 1022.78 1023.00 1023.22 1023.44 1023.64 1023.83 1024.00 1024.14
1007.01 1007.71 1008.48 1009.29 1010.11 1010.92 1011.70 1012.44 1013.14 1013.79 1014.41 1015.00 1015.56 1016.11 1016.64 1017.16 1017.66 1018.15 1018.62 1019.06 1019.47 1019.83 1020.15 1020.43 1020.66 1020.84 1021.00 1021.12 1021.23 1021.32 1021.41 1021.50 1021.61 1021.73 1021.87 1022.03 1022.20 1022.39 1022.59 1022.80 1023.00 1023.19 1023.37 1023.53
1007.10 1007.70 1008.36 1009.08 1009.83 1010.59 1011.33 1012.05 1012.75 1013.40 1014.03 1014.62 1015.19 1015.73 1016.25 1016.76 1017.24 1017.71 1018.16 1018.59 1018.99 1019.36 1019.69 1019.99 1020.25 1020.47 1020.65 1020.79 1020.91 1021.00 1021.08 1021.15 1021.22 1021.30 1021.39 1021.50 1021.62 1021.77 1021.93 1022.10 1022.28 1022.47 1022.64 1022.81
Thickness
5660 5666 5668 5666 5668 5667 5658 5650 5639 5639 5636 5630 5622 5613 5604 5596 5588 5581 5576 5572 5567 5563 5561 5560 5560 5560 5562 5563 5565 5567 5569 5570 5570 5571 5572 5573 5573 5574 5575 5575 5575 5575 5575 5575
5656 5666 5666 5663 5666 5666 5663 5658 5648 5639 5630 5629 5619 5608 5598 5590 5583 5576 5570 5565 5560 5556 5554 5552 5552 5553 5553 5554 5555 5556 5558 5559 5560 5561 5562 5562 5562 5562 5563 5563 5562 5562 5562 5562
5640 5655 5656 5647 5658 5662 5659 5656 5648 5636 5629 5620 5609 5601 5593 5585 5578 5571 5564 5559 5553 5549 5546 5545 5545 5545 5544 5545 5546 5547 5548 5549 5550 5551 5552 5552 5552 5552 5551 5551 5550 5550 5550 5550
5635 5641 5634 5647 5665 5665 5655 5648 5647 5638 5626 5617 5607 5595 5586 5579 5572 5564 5558 5552 5546 5542 5539 5537 5537 5537 5536 5537 5538 5538 5539 5540 5541 5542 5542 5542 5542 5541 5541 5541 5540 5539 5539 5539
5628 5627 5635 5651 5659 5657 5647 5637 5638 5628 5617 5606 5595 5585 5575 5570 5564 5558 5551 5545 5540 5536 5533 5531 5530 5530 5530 5530 5530 5531 5531 5531 5532 5533 5533 5533 5533 5532 5531 5531 5530 5530 5530 5530
5627 5625 5626 5645 5661 5664 5648 5628 5631 5624 5613 5602 5593 5582 5573 5564 5557 5550 5544 5539 5534 5530 5528 5526 5524 5524 5524 5523 5523 5524 5524 5525 5525 5525 5525 5525 5524 5524 5523 5523 5522 5522 5521 5521
5627 5624 5635 5655 5662 5658 5632 5629 5628 5620 5611 5600 5593 5586 5573 5561 5551 5544 5538 5533 5529 5526 5523 5521 5520 5519 5518 5518 5518 5518 5519 5519 5519 5519 5519 5518 5518 5517 5516 5515 5514 5513 5512 5512
5627 5622 5630 5658 5656 5644 5637 5636 5627 5616 5606 5596 5587 5578 5566 5556 5546 5539 5533 5528 5525 5522 5519 5517 5516 5515 5513 5513 5513 5513 5513 5512 5513 5513 5514 5513 5512 5511 5509 5508 5506 5504 5502 5502
5631 5632 5645 5652 5650 5648 5641 5630 5620 5610 5600 5591 5580 5570 5560 5550 5541 5535 5529 5524 5521 5518 5514 5512 5511 5511 5509 5508 5509 5508 5507 5507 5507 5508 5507 5507 5506 5505 5503 5501 5500 5497 5495 5494
5634 5640 5645 5646 5645 5642 5637 5628 5619 5608 5597 5587 5576 5565 5555 5546 5538 5531 5525 5521 5517 5513 5510 5508 5507 5507 5506 5505 5505 5504 5503 5502 5501 5501 5499 5499 5499 5499 5498 5496 5494 5492 5490 5488
5632 5638 5638 5638 5637 5634 5628 5621 5612 5602 5593 5583 5573 5562 5552 5544 5536 5530 5524 5519 5514 5511 5508 5505 5505 5504 5503 5503 5502 5500 5499 5498 5496 5494 5493 5491 5491 5490 5491 5491 5492 5490 5487 5485
5635 5641 5635 5630 5632 5630 5622 5613 5605 5596 5585 5577 5569 5559 5551 5542 5535 5528 5522 5517 5512 5509 5506 5504 5503 5502 5501 5501 5499 5497 5495 5493 5491 5489 5488 5486 5485 5484 5485 5486 5487 5487 5486 5484
5648 5647 5641 5635 5630 5625 5617 5609 5602 5593 5584 5573 5564 5557 5549 5541 5533 5528 5522 5517 5513 5509 5506 5504 5502 5501 5500 5499 5497 5495 5492 5490 5488 5487 5485 5483 5482 5481 5479 5479 5481 5480 5480 5479
5652 5646 5635 5630 5625 5621 5614 5606 5598 5589 5581 5573 5564 5556 5548 5540 5534 5528 5522 5518 5514 5510 5507 5504 5502 5500 5499 5498 5496 5494 5492 5490 5488 5486 5484 5482 5480 5479 5478 5476 5475 5474 5475 5475
5648 5645 5636 5629 5622 5616 5610 5603 5594 5585 5577 5570 5563 5556 5548 5541 5534 5529 5524 5520 5515 5511 5508 5505 5502 5500 5499 5498 5495 5493 5491 5489 5488 5486 5485 5483 5481 5479 5478 5476 5475 5473 5473 5473
5642 5638 5632 5626 5619 5613 5607 5600 5593 5585 5578 5570 5563 5556 5550 5543 5536 5530 5525 5521 5516 5511 5509 5506 5503 5501 5500 5498 5495 5492 5491 5491 5489 5487 5485 5484 5482 5480 5478 5477 5475 5474 5474 5473
5637 5631 5627 5622 5618 5613 5607 5602 5595 5588 5581 5573 5566 5559 5552 5545 5537 5531 5527 5523 5518 5514 5511 5508 5505 5503 5501 5499 5496 5493 5492 5491 5491 5489 5487 5486 5484 5482 5481 5479 5478 5476 5476 5477
5643 5638 5633 5628 5622 5615 5609 5604 5598 5590 5583 5577 5570 5562 5555 5548 5541 5535 5530 5525 5520 5516 5513 5511 5508 5506 5504 5502 5499 5496 5494 5492 5491 5490 5489 5488 5486 5485 5484 5482 5481 5480 5479 5480
5643 5639 5634 5629 5624 5618 5612 5606 5600 5594 5587 5581 5573 5565 5559 5553 5546 5539 5533 5528 5523 5518 5516 5515 5512 5509 5507 5505 5503 5500 5498 5496 5494 5493 5492 5492 5490 5488 5487 5486 5485 5485 5484 5483
5644 5640 5636 5631 5627 5621 5615 5609 5603 5597 5591 5584 5577 5569 5562 5556 5551 5544 5538 5532 5528 5525 5522 5519 5516 5513 5511 5510 5508 5505 5503 5501 5499 5497 5496 5494 5494 5493 5492 5491 5490 5490 5489 5488
5645 5642 5637 5633 5628 5623 5618 5613 5607 5601 5595 5589 5581 5574 5568 5562 5556 5550 5543 5537 5534 5532 5528 5525 5521 5519 5517 5515 5514 5511 5509 5507 5505 5503 5502 5500 5499 5498 5497 5497 5496 5495 5494 5493
5647 5643 5640 5635 5630 5624 5620 5616 5611 5605 5598 5592 5586 5580 5573 5566 5561 5556 5551 5547 5542 5539 5535 5531 5528 5526 5524 5522 5520 5518 5516 5514 5512 5510 5508 5507 5506 5504 5503 5503 5502 5501 5500 5499
5648 5645 5641 5637 5632 5627 5622 5618 5614 5609 5603 5597 5592 5585 5579 5574 5569 5563 5556 5554 5551 5547 5543 5539 5537 5534 5532 5529 5526 5525 5524 5522 5520 5519 5517 5515 5514 5512 5511 5510 5509 5508 5506 5505
5648 5646 5643 5639 5634 5628 5623 5620 5616 5612 5607 5602 5597 5592 5586 5579 5574 5572 5568 5563 5559 5554 5550 5547 5545 5542 5539 5535 5534 5532 5531 5530 5529 5527 5525 5524 5522 5520 5518 5517 5515 5514 5513 5511
5649 5646 5643 5639 5635 5631 5627 5623 5618 5614 5610 5605 5601 5597 5593 5589 5583 5579 5574 5570 5566 5561 5558 5555 5552 5549 5545 5543 5541 5540 5539 5537 5536 5535 5533 5531 5529 5528 5526 5524 5522 5521 5519 5517
5648 5647 5646 5644 5640 5636 5632 5627 5622 5618 5614 5609 5605 5602 5599 5595 5591 5586 5581 5577 5573 5569 5565 5561 5558 5555 5553 5551 5549 5548 5547 5546 5544 5543 5541 5540 5538 5536 5533 5531 5529 5527 5526 5524
5647 5646 5644 5641 5640 5639 5636 5632 5627 5623 5620 5616 5611 5608 5604 5601 5597 5592 5588 5583 5579 5575 5572 5569 5566 5563 5561 5559 5557 5556 5555 5554 5552 5551 5549 5548 5546 5544 5541 5539 5537 5535 5533 5530